Regional Weather Roundup
Issued by NWS Sioux Falls, SD

Home | Current Version | Previous Version | Graphics & Text | Print | Product List | Glossary On
Versions: 1 2 3 4 5 6 7 8 9 10 11 12 13 14 15 16 17 18 19 20 21 22 23 24 25 26 27 28 29 30 31 32 33 34 35 36 37 38 39 40 41 42 43 44 45 46 47 48 49 50
000
ASUS43 KFSD 021810
RWRFSD

WEATHER ROUNDUP FOR SE SOUTH DAKOTA/SW MINNESOTA/NW IOWA
NATIONAL WEATHER SERVICE SIOUX FALLS SD
100 PM CDT TUE JUN 02 2015

NOTE: "FAIR" INDICATES FEW OR NO CLOUDS BELOW 12,000 FEET WITH NO
SIGNIFICANT WEATHER AND OR OBSTRUCTIONS TO VISIBILITY.


SDZ038>040-050-052>070-021900-
SOUTHEAST SOUTH DAKOTA

CITY           SKY/WX    TMP DP  RH WIND       PRES   REMARKS
BROOKINGS      PTSUNNY   73  59  60 S23G31    29.89F
CHAMBERLAIN    SUNNY     77  63  61 S18G24    29.79F
6HR MIN TEMP:  63; 6HR MAX TEMP:  77;

HURON          SUNNY     79  61  53 S17G25    29.79F
6HR MIN TEMP:  62; 6HR MAX TEMP:  79;

MADISON        FAIR      73  59  60 S28G37    29.88F
MITCHELL       MOSUNNY   78  60  53 S23G30    29.83F
6HR MIN TEMP:  62; 6HR MAX TEMP:  79;

SIOUX FALLS    CLOUDY    72  60  66 S22G29    29.91F
6HR MIN TEMP:  59; 6HR MAX TEMP:  72;

WINNER         FAIR      87  59  38 S17G25    29.79F
YANKTON        CLOUDY    73  59  60 S18       29.88F
$$

MNZ071-072-080-081-089-090-097-098-021900-
SOUTHWEST MINNESOTA

CITY           SKY/WX    TMP DP  RH WIND       PRES   REMARKS
FAIRMONT       MOSUNNY   72  52  49 S20G28    30.00F
JACKSON        SUNNY     72  54  53 SE20G25   30.00F
LUVERNE        CLOUDY    72  55  56 S15G22    29.95F
MARSHALL       CLOUDY    75  54  46 S18G28    29.91F
6HR MIN TEMP:  61; 6HR MAX TEMP:  75;

MONTEVIDEO     CLOUDY    75  55  50 S14G24    29.91F
PIPESTONE      PTSUNNY   73  55  53 S24G32    29.92F
REDWOOD FALLS  PTSUNNY   75  53  46 SE23G31   29.94F
TRACY          PTSUNNY   74  56  51 S18G25    29.94S
WINDOM         SUNNY     72  52  49 S18       29.98F
WORTHINGTON    MOSUNNY   75  54  46 S18G25    29.97F
$$

IAZ001>003-012>014-020>022-031-032-NEZ013-014-SDZ071-021900-
NORTHWEST IOWA

CITY           SKY/WX    TMP DP  RH WIND       PRES   REMARKS
CHEROKEE       MOSUNNY   69  56  64 S13       30.00S
DENISON        PTSUNNY   68  55  64 S10G22    29.99F
ESTHERVILLE    SUNNY     68  55  63 S21G30    30.01F
LE MARS        PTSUNNY   75  59  57 S16G28    29.95F
ORANGE CITY    MOSUNNY   72  57  60 S13G22    29.96F
SHELDON        MOSUNNY   75  55  50 S18G30    29.96F
SIOUX CITY     CLOUDY    73  57  57 SE15      29.95F
6HR MIN TEMP:  59; 6HR MAX TEMP:  74;

SPENCER        SUNNY     71  55  56 S22G29    30.00S
6HR MIN TEMP:  56; 6HR MAX TEMP:  72;

STORM LAKE     MOSUNNY   70  54  56 S20G28    30.02R
$$

ABBREVIATIONS USED IN REMARKS
   TC - TEMPERATURE IN CELSIUS
  WCI - WIND CHILL INDEX
   HX - HEAT INDEX
  VSB - VISIBILITY




USA.gov is the U.S. government's official web portal to all federal, state and local government web resources and services.